Regional Weather Roundup
Issued by NWS Portland, ME

Current Version | Previous Version | Text Only | Print | Product List | Glossary Off
Versions: 1 2 3 4 5 6 7 8 9 10 11 12 13 14 15 16 17 18 19 20 21 22 23 24 25 26 27 28 29 30 31 32 33 34 35 36 37 38 39 40 41 42 43 44 45 46 47 48 49
000 ASUS41 KGYX 240905 RWRGYX WEATHER ROUNDUP FOR MAINE AND NEW HAMPSHIRE NATIONAL WEATHER SERVICE GRAY ME 500 AM EDT FRI MAR 24 2017 MEZ002-005-006-010-012-015-018-020-021-024-026-027-029-241000- MAINE CITY SKY/WX TMP DP RH WIND PRES REMARKS PORTLAND PTCLDY 24 7 48 SW6 30.49R SANFORD CLOUDY 18 11 74 CALM 30.47F BAR HARBOR PTCLDY 18 6 59 CALM 30.48R WISCASSET CLOUDY 18 9 68 CALM 30.50R ROCKLAND CLOUDY 19 7 59 CALM 30.49R FRYEBURG CLOUDY 20 5 52 CALM 30.43F LEWISTONAUBURN CLOUDY 18 6 59 CALM 30.45S AUGUSTA CLOUDY 20 2 45 S3 30.45R WATERVILLE CLOUDY 17 4 56 S3 30.42R BANGOR CLOUDY 15 5 64 SW3 30.46R GREENVILLE N/A 15 2 56 CALM 30.31S MILLINOCKET CLOUDY 11 2 67 CALM 30.42R HOULTON CLOUDY -1 -7 75 CALM 30.37R PRESQUE ISLE CLOUDY -1 -7 75 CALM 30.38R FRENCHVILLE CLOUDY 8 -10 43 S7 30.29S CARIBOU CLOUDY 6 -8 52 SW6 30.34S $$ NHZ002-005-008-009-011-012-014-241000- NEW HAMPSHIRE CITY SKY/WX TMP DP RH WIND PRES REMARKS PORTSMOUTH MOCLDY 26 6 43 SE5 30.46F ROCHESTER CLOUDY 24 6 46 CALM 30.44F NASHUA CLOUDY 25 15 66 CALM 30.46F MANCHESTER MOCLDY 27 8 44 SE6 30.44F CONCORD MOCLDY 25 9 50 E3 30.44F LACONIA CLOUDY 24 12 60 E3 30.42F PLYMOUTH MOCLDY 22 12 63 CALM 30.43F BERLIN CLOUDY 12 4 70 CALM 30.36F WHITEFIELD CLOUDY 14 4 64 CALM 30.38F JAFFREY CLOUDY 24 10 55 CALM 30.40F KEENE PTCLDY 25 16 68 CALM 30.42F LEBANON CLOUDY 24 12 60 CALM 30.40F MT WASHINGTON NOT AVBL $$ VTZ005-007-008-241000- VERMONT CITY SKY/WX TMP DP RH WIND PRES REMARKS ST JOHNSBURY N/A 19 8 62 MISG 30.38F MONTPELIER CLOUDY 19 12 74 CALM 30.38F BURLINGTON MOCLDY 31 9 39 S14 30.34F $$ MAZ007-012-024-CTZ003-RIZ002-NYZ038-NYZ072-241000- SOUTHERN NEW ENGLAND AND NY CITY SKY/WX TMP DP RH WIND PRES REMARKS BOSTON CLOUDY 29 13 51 S5 30.50F WORCESTER CLOUDY 25 6 44 SW5 30.42F NANTUCKET PTCLDY 28 15 58 NW3 30.52F PROVIDENCE CLOUDY 27 6 41 CALM 30.50F HARTFORD CLOUDY 27 15 61 S3 30.47F ALBANY CLOUDY 30 8 39 S8 30.40F NEW YORK CITY MOCLDY 38 16 40 S9 30.48F $$ ANZ081-ANZ082-ANZ150-NHZ014-MEZ023>029-241000- COASTAL MARINE OBSERVATIONS STATION/POSITION TIME TEMP WIND PRES WAVE AIR SEA DIR/SP/G HT/PER (UTC) (F) (DEG/KT/KT) (MB) (FT/S) MOUNT DESERT ROC 0900 28 1032.3S MATINICUS ROCK 0800 29 230/ 5/ 6 1031.7F ISLE OF SHOALS 0800 32 220/ 4/ 4 1032.7R JEFFREYS LEDGE 0806 41 N/A 2/ 4 CASHES LEDGE BUO 0750 30 39 1033.2 3/ 4 GEORGES BANK BUO 0750 35 39 1031.9 7/ 8 $$ .............KEY.............. WCI - WIND CHILL TC - TEMPERATURE IN CELSIUS VSB - VISIBILITY IN MILES HX - HEAT INDEX FAIR- INDICATES FEW OR NO CLOUDS BELOW 12,000 FT, WITH NO SIGNIFICANT WEATHER AND/OR OBSTRUCTIONS TO VISIBILITY.

USA.gov is the U.S. government's official web portal to all federal, state and local government web resources and services.